Location: Chavannes
(47.1090°N, 0.2226°W)
Time: 14:33:00
(UTC+00:00)

IRS-1C Rocket - Pass Details

Date: 16 October 2021
Orbit: 801 x 805 km, 98.9° (Epoch: 07 December)

Event Time Altitude Azimuth Distance (km) Brightness Sun altitude
Exits shadow 18:49:20 - 159° (SSE) 3,286 7.0 -17.4°
Reaches altitude 10° 18:51:37 10° 158° (SSE) 2,372 6.3 -17.8°
Maximum altitude 18:56:51 78° 73° (ENE) 824 4.0 -18.7°
Drops below altitude 10° 19:02:08 10° 348° (NNW) 2,392 6.8 -19.6°
Sets 19:04:29 0° 347° (NNW) 3,328 7.6 -20.0°
